Regional Weather Roundup
Issued by NWS

Home | Current Version | Previous Version | Text Only | Print | Product List | Glossary On
Versions: 1 2 3 4 5 6 7 8 9 10 11 12 13 14 15 16 17 18 19 20 21 22 23 24 25 26 27 28 29 30 31 32 33 34 35 36 37 38 39 40 41 42 43 44 45 46 47 48 49 50
000
ASUS43 KTOP 221508
RWRKS

WEATHER ROUNDUP FOR KANSAS
NATIONAL WEATHER SERVICE GOODLAND KS
1000 AM CDT FRI MAY 22 2015

NOTE:  "FAIR" INDICATES FEW OR NO CLOUDS BELOW 12,000 FEET WITH NO
SIGNIFICANT WEATHER AND/OR OBSTRUCTIONS TO VISIBILITY.

KSZ001>006-013>018-027>032-041>047-221600-
NORTHWEST KANSAS

CITY           SKY/WX    TMP DP  RH WIND       PRES   REMARKS
GOODLAND       LGT RAIN  48  47  96 SE15G29   30.08R
HAYS           CLOUDY    52  43  71 SE12      30.18F
HILL CITY      CLOUDY    51  47  86 SE10      30.19R
RUSSELL        CLOUDY    52  49  89 SE13      30.18R
$$

KSZ061>065-074>080-084>089-221600-
SOUTHWEST KANSAS

CITY           SKY/WX    TMP DP  RH WIND       PRES   REMARKS
DODGE CITY     CLOUDY    51  46  83 SE18G28   30.16F
ELKHART          N/A     51  45  80 SE16        N/A
GARDEN CITY    CLOUDY    49  47  93 SE21      30.12S
GREAT BEND     CLOUDY    52  46  82 S20       30.19R
LIBERAL        CLOUDY    52  46  82 SE15      30.14R
PRATT          CLOUDY    52  48  87 SE12G21   30.20F
$$

KSZ066>073-081>083-090>101-221600-
SOUTHEAST KANSAS

CITY           SKY/WX    TMP DP  RH WIND       PRES   REMARKS
CHANUTE        CLOUDY    56  50  80 S6        30.29S
COFFEYVILLE    CLOUDY    58  52  80 S3        30.27S
HUTCHINSON     LGT RAIN  54  49  83 S13       30.22R
MEDICINE LODGE   N/A     52  50  93 SE8       30.20S
NEWTON         CLOUDY    50  45  81 SE17      30.20F
PARSONS        CLOUDY    59  51  75 VRB3      30.29S
WICHITA INTL   LGT RAIN  53  49  86 SE16      30.19F
WICHITA JABRA  LGT RAIN  51  49  92 E15G21    30.18F
WICHITA MCCONL CLOUDY    52  50  93 SE13G22   30.18F
WINFIELD       RAIN      53  51  93 E9        30.24F FOG
$$

KSZ007>012-019>026-033>040-048>060-102>105-221600-
NORTHEAST KANSAS

CITY           SKY/WX    TMP DP  RH WIND       PRES   REMARKS
CONCORDIA      CLOUDY    54  47  77 S8        30.22F
EMPORIA        CLOUDY    55  48  77 S9        30.27R
LAWRENCE       CLOUDY    55  50  83 CALM      30.29S
MANHATTAN      CLOUDY    55  51  86 NE3       30.26R
MARYSVILLE     CLOUDY    54  50  87 SE3       30.25S
OLATHE IND     CLOUDY    57  49  74 S6        30.29S
OLATHE EXE     CLOUDY    57  49  74 S5        30.28S
SALINA         CLOUDY    55  50  83 SE6       30.21F
TOPEKA BILLARD CLOUDY    56  50  80 E3        30.29R
TOPEKA FORBES  CLOUDY    55  50  83 S3        30.28R
$$


USA.gov is the U.S. government's official web portal to all federal, state and local government web resources and services.